• In Deutschland
  • Länderverzeichnis
  • Für 7 Tage
  • Wassertemperatur
  • Satellitenkarten
  • Wetterkarte
  • Widgets
  • user-avatar
    Anmelden

    Stündliche Wetter Zweibrücken

    Heute, 21 Oktober, Samstag

    Zeit Temperatur Niederschläge Wind Luftdruck Luftfeuchtigkeit
    00:00 +10°C° 0 mm 2 m/S 741 mmHg 95%
    01:00 +10°C° 0 mm 2 m/S 741 mmHg 95%
    02:00 +10°C° 0 mm 2 m/S 741 mmHg 95%
    03:00 +10°C° 0 mm 2 m/S 741 mmHg 95%
    04:00 +10°C° 0 mm 2 m/S 741 mmHg 95%
    05:00 +10°C° 0 mm 2 m/S 741 mmHg 95%
    06:00 +11°C° 0 mm 3 m/S 740 mmHg 95%
    07:00 +12°C° 0 mm 3 m/S 740 mmHg 90%
    08:00 +14°C° 0 mm 4 m/S 740 mmHg 85%
    09:00 +15°C° 0 mm 5 m/S 740 mmHg 80%
    10:00 +16°C° 0,2 mm 5 m/S 740 mmHg 80%
    11:00 +16°C° 0,2 mm 5 m/S 740 mmHg 80%
    12:00 +16°C° 0,2 mm 5 m/S 740 mmHg 80%
    13:00 +15°C° 0,4 mm 4 m/S 740 mmHg 83%
    14:00 +14°C° 0,4 mm 4 m/S 740 mmHg 86%
    15:00 +14°C° 0,4 mm 4 m/S 740 mmHg 89%
    16:00 +13°C° 0,5 mm 4 m/S 741 mmHg 89%
    17:00 +12°C° 0,5 mm 4 m/S 741 mmHg 89%
    18:00 +12°C° 0,5 mm 4 m/S 741 mmHg 89%
    19:00 +11°C° 0,2 mm 4 m/S 742 mmHg 89%
    20:00 +11°C° 0,2 mm 4 m/S 742 mmHg 89%
    21:00 +9°C° 0,2 mm 5 m/S 742 mmHg 90%
    22:00 +9°C° 0,1 mm 5 m/S 742 mmHg 90%
    23:00 +8°C° 0,1 mm 5 m/S 743 mmHg 89%

    Morgen, 22 Oktober, Sonntag

    Zeit Temperatur Niederschläge Wind Luftdruck Luftfeuchtigkeit
    00:00 +8°C° 0,1 mm 5 m/S 743 mmHg 89%
    01:00 +8°C° 0 mm 5 m/S 743 mmHg 89%
    02:00 +7°C° 0 mm 5 m/S 742 mmHg 90%
    03:00 +7°C° 0 mm 5 m/S 742 mmHg 90%
    04:00 +7°C° 0 mm 5 m/S 742 mmHg 89%
    05:00 +7°C° 0 mm 5 m/S 742 mmHg 88%
    06:00 +7°C° 0 mm 5 m/S 742 mmHg 88%
    07:00 +7°C° 0 mm 5 m/S 742 mmHg 86%
    08:00 +8°C° 0 mm 6 m/S 743 mmHg 84%
    09:00 +8°C° 0 mm 6 m/S 743 mmHg 82%
    10:00 +8°C° 0,1 mm 6 m/S 743 mmHg 79%
    11:00 +9°C° 0,1 mm 6 m/S 742 mmHg 77%
    12:00 +10°C° 0,1 mm 6 m/S 742 mmHg 74%
    13:00 +9°C° 0,2 mm 6 m/S 742 mmHg 75%
    14:00 +9°C° 0,2 mm 5 m/S 742 mmHg 76%
    15:00 +9°C° 0,2 mm 5 m/S 742 mmHg 77%
    16:00 +8°C° 0,1 mm 5 m/S 742 mmHg 80%
    17:00 +8°C° 0,1 mm 4 m/S 743 mmHg 83%
    18:00 +7°C° 0,1 mm 4 m/S 743 mmHg 87%
    19:00 +7°C° 0,1 mm 4 m/S 743 mmHg 87%
    20:00 +7°C° 0,1 mm 4 m/S 744 mmHg 88%
    21:00 +6°C° 0,1 mm 4 m/S 744 mmHg 89%
    22:00 +6°C° 0 mm 4 m/S 744 mmHg 90%
    23:00 +6°C° 0 mm 4 m/S 744 mmHg 91%

    übermorgen, 23 Oktober, Montag

    Zeit Temperatur Niederschläge Wind Luftdruck Luftfeuchtigkeit
    00:00 +6°C° 0 mm 4 m/S 744 mmHg 92%
    01:00 +6°C° 0,1 mm 4 m/S 744 mmHg 92%
    02:00 +7°C° 0,1 mm 4 m/S 744 mmHg 92%
    03:00 +7°C° 0,1 mm 4 m/S 744 mmHg 92%
    04:00 +7°C° 0,1 mm 4 m/S 744 mmHg 92%
    05:00 +7°C° 0,1 mm 4 m/S 744 mmHg 92%
    06:00 +7°C° 0,1 mm 4 m/S 744 mmHg 91%
    07:00 +7°C° 0,4 mm 4 m/S 745 mmHg 91%
    08:00 +8°C° 0,4 mm 4 m/S 745 mmHg 90%
    09:00 +8°C° 0,4 mm 4 m/S 745 mmHg 89%
    10:00 +8°C° 0,4 mm 4 m/S 745 mmHg 89%
    11:00 +10°C° 0,4 mm 4 m/S 745 mmHg 89%
    12:00 +10°C° 0,4 mm 4 m/S 746 mmHg 88%
    13:00 +10°C° 0,1 mm 4 m/S 746 mmHg 88%
    14:00 +10°C° 0,1 mm 4 m/S 746 mmHg 89%
    15:00 +10°C° 0,1 mm 4 m/S 746 mmHg 89%
    16:00 +10°C° 0,3 mm 3 m/S 746 mmHg 90%
    17:00 +10°C° 0,3 mm 3 m/S 746 mmHg 92%
    18:00 +9°C° 0,3 mm 3 m/S 746 mmHg 93%
    19:00 +9°C° 1,4 mm 3 m/S 746 mmHg 94%
    20:00 +9°C° 1,4 mm 3 m/S 746 mmHg 95%
    21:00 +9°C° 1,4 mm 3 m/S 746 mmHg 95%
    22:00 +9°C° 0,9 mm 3 m/S 746 mmHg 95%
    23:00 +10°C° 0,9 mm 3 m/S 746 mmHg 95%

    24 Oktober, Dienstag

    Zeit Temperatur Niederschläge Wind Luftdruck Luftfeuchtigkeit
    00:00 +10°C° 0,9 mm 3 m/S 746 mmHg 95%
    01:00 +10°C° 0,2 mm 3 m/S 746 mmHg 95%
    02:00 +10°C° 0,2 mm 3 m/S 746 mmHg 95%
    03:00 +10°C° 0,2 mm 2 m/S 746 mmHg 96%
    04:00 +10°C° 0,1 mm 2 m/S 746 mmHg 96%
    05:00 +10°C° 0,1 mm 2 m/S 746 mmHg 96%
    06:00 +12°C° 0,1 mm 2 m/S 747 mmHg 96%
    07:00 +12°C° 0,1 mm 2 m/S 747 mmHg 95%
    08:00 +12°C° 0,1 mm 2 m/S 747 mmHg 94%
    09:00 +13°C° 0,1 mm 2 m/S 747 mmHg 94%
    10:00 +13°C° 0 mm 2 m/S 748 mmHg 92%
    11:00 +14°C° 0 mm 2 m/S 748 mmHg 91%
    12:00 +15°C° 0 mm 2 m/S 748 mmHg 90%
    13:00 +15°C° 0 mm 2 m/S 748 mmHg 90%
    14:00 +15°C° 0 mm 2 m/S 748 mmHg 91%
    15:00 +15°C° 0 mm 2 m/S 748 mmHg 92%
    16:00 +14°C° 0 mm 2 m/S 748 mmHg 93%
    17:00 +13°C° 0 mm 1 m/S 748 mmHg 95%
    18:00 +13°C° 0 mm 1 m/S 748 mmHg 97%
    19:00 +13°C° 0 mm 1 m/S 748 mmHg 96%
    20:00 +13°C° 0 mm 1 m/S 748 mmHg 96%
    21:00 +13°C° 0 mm 1 m/S 748 mmHg 96%
    22:00 +13°C° 0 mm 1 m/S 748 mmHg 96%
    23:00 +12°C° 0 mm 1 m/S 748 mmHg 96%

    25 Oktober, Mittwoch

    Zeit Temperatur Niederschläge Wind Luftdruck Luftfeuchtigkeit
    00:00 +12°C° 0 mm 1 m/S 748 mmHg 96%
    01:00 +12°C° 0 mm 1 m/S 748 mmHg 96%
    02:00 +12°C° 0 mm 1 m/S 748 mmHg 96%
    03:00 +12°C° 0 mm 1 m/S 748 mmHg 96%
    04:00 +12°C° 0 mm 1 m/S 748 mmHg 96%
    05:00 +12°C° 0 mm 1 m/S 748 mmHg 96%
    06:00 +11°C° 0 mm 1 m/S 748 mmHg 96%
    07:00 +13°C° 0 mm 1 m/S 748 mmHg 91%
    08:00 +14°C° 0 mm 1 m/S 748 mmHg 87%
    09:00 +15°C° 0 mm 1 m/S 748 mmHg 83%
    10:00 +18°C° 0 mm 1 m/S 748 mmHg 78%
    11:00 +19°C° 0 mm 1 m/S 748 mmHg 73%
    12:00 +20°C° 0 mm 1 m/S 748 mmHg 69%
    13:00 +20°C° 0 mm 1 m/S 748 mmHg 70%
    14:00 +20°C° 0 mm 1 m/S 747 mmHg 72%
    15:00 +20°C° 0 mm 1 m/S 747 mmHg 73%
    16:00 +18°C° 0 mm 1 m/S 747 mmHg 78%
    17:00 +16°C° 0 mm 1 m/S 747 mmHg 82%
    18:00 +14°C° 0 mm 1 m/S 747 mmHg 87%
    19:00 +14°C° 0 mm 1 m/S 748 mmHg 88%
    20:00 +14°C° 0 mm 1 m/S 748 mmHg 89%
    21:00 +13°C° 0 mm 1 m/S 748 mmHg 89%
    22:00 +13°C° 0 mm 1 m/S 748 mmHg 90%
    23:00 +13°C° 0 mm 1 m/S 748 mmHg 90%

    26 Oktober, Donnerstag

    Zeit Temperatur Niederschläge Wind Luftdruck Luftfeuchtigkeit
    00:00 +13°C° 0 mm 1 m/S 748 mmHg 91%
    01:00 +12°C° 0 mm 1 m/S 748 mmHg 91%
    02:00 +12°C° 0 mm 1 m/S 747 mmHg 91%
    03:00 +12°C° 0 mm 1 m/S 747 mmHg 92%
    04:00 +12°C° 0 mm 1 m/S 747 mmHg 91%
    05:00 +12°C° 0 mm 1 m/S 747 mmHg 91%
    06:00 +11°C° 0 mm 1 m/S 748 mmHg 91%
    07:00 +13°C° 0 mm 1 m/S 748 mmHg 85%
    08:00 +14°C° 0 mm 1 m/S 748 mmHg 79%
    09:00 +16°C° 0 mm 1 m/S 748 mmHg 73%
    10:00 +18°C° 0 mm 1 m/S 748 mmHg 68%
    11:00 +20°C° 0 mm 1 m/S 748 mmHg 63%
    12:00 +21°C° 0 mm 1 m/S 748 mmHg 58%
    13:00 +21°C° 0 mm 1 m/S 748 mmHg 62%
    14:00 +20°C° 0 mm 1 m/S 748 mmHg 65%
    15:00 +20°C° 0 mm 1 m/S 747 mmHg 68%
    16:00 +18°C° 0 mm 1 m/S 747 mmHg 73%
    17:00 +16°C° 0 mm 1 m/S 748 mmHg 77%
    18:00 +14°C° 0 mm 1 m/S 748 mmHg 82%
    19:00 +14°C° 0 mm 1 m/S 748 mmHg 82%
    20:00 +13°C° 0 mm 1 m/S 748 mmHg 83%
    21:00 +13°C° 0 mm 1 m/S 748 mmHg 84%
    22:00 +13°C° 0 mm 1 m/S 748 mmHg 84%
    23:00 +11°C° 0 mm 0 m/S 748 mmHg 85%
    Mehr zeigen